Weather History for Wilmington, DE

Change the Weather History Date:

Wednesday, April 9, 2014

  Actual Average Record
Temperature  
Mean Temperature 50 °F 51 °F  
Max Temperature 65 °F 61 °F 85 °F (1959)
Min Temperature 34 °F 41 °F 25 °F (1977)
Degree Days  
Heating Degree Days 15 14  
Month to date heating degree days 137 138  
Since 1 July heating degree days 4812 4444  
Cooling Degree Days 0 0  
Month to date cooling degree days 0 0  
Year to date cooling degree days 0 1  
Moisture  
Dew Point 31 °F    
Average Humidity 61    
Maximum Humidity 100    
Minimum Humidity 22    
Precipitation  
Precipitation 0.00 in 0.12 in 1.82 in (1895)
Month to date precipitation 0.81 1.13  
Year to date precipitation 13.21 10.74  
Snow  
Snow 0.00 in 0.10 in 1.50 in (1982)
Month to date snowfall 0.0 0.2  
Since 1 July snowfall 56.1 20.1  
Snow Depth 0.00 in    
Sea Level Pressure  
Sea Level Pressure 29.80 in    
Wind  
Wind Speed 10 mph (NW)    
Max Wind Speed 25 mph    
Max Gust Speed 30 mph    
Visibility 10 miles    
Events      
T = Trace of Precipitation, MM = Missing Value Source: NWS Daily Summary

Daily Weather History Graph

Daily Weather History Graph

Search for Another Location

Airport:

Trip Planner

Search our weather history database for the weather conditions in past years. The results will help you decide how hot, cold, wet, or windy it might be!

Date:

Astronomy

Apr. 09, 2014 Rise Set
Actual Time 6:34 AM EDT 7:34 PM EDT
Civil Twilight 6:06 AM EDT 8:02 PM EDT
Nautical Twilight 5:33 AM EDT 8:34 PM EDT
Astronomical Twilight 4:59 AM EDT 9:09 PM EDT
Moon 2:21 PM EDT (4/9) 3:20 AM EDT (4/9)
Length of Visible Light 13h 55m
Length of Day
13h 00m
Waxing Gibbous, 71% of the Moon is Illuminated
Apr 9
Waxing Gibbous
Apr 15
Full
Apr 22
Last Quarter
Apr 29
New
May 6
First Quarter

Hourly Weather History & Observations

Time (EDT) Temp. Windchill Dew Point Humidity Pressure Visibility Wind Dir Wind Speed Gust Speed Precip Events Conditions
12:51 AM 46.9 °F - 36.0 °F 66% 29.69 in 10.0 mi North 3.5 mph - N/A   Clear
1:51 AM 42.1 °F 38.4 °F 36.0 °F 79% 29.68 in 10.0 mi NW 5.8 mph - N/A   Clear
2:51 AM 44.1 °F 41.5 °F 37.0 °F 76% 29.68 in 10.0 mi WNW 4.6 mph - N/A   Clear
3:51 AM 42.1 °F - 37.0 °F 82% 29.68 in 10.0 mi Calm Calm - N/A   Clear
4:51 AM 39.0 °F 36.8 °F 35.1 °F 86% 29.69 in 10.0 mi West 3.5 mph - N/A   Clear
5:51 AM 36.0 °F 32.1 °F 34.0 °F 93% 29.70 in 10.0 mi NNW 4.6 mph - N/A   Clear
6:51 AM 36.0 °F 31.1 °F 35.1 °F 97% 29.73 in 9.0 mi NW 5.8 mph - N/A   Clear
7:51 AM 46.0 °F 42.5 °F 37.9 °F 73% 29.77 in 10.0 mi NW 6.9 mph - N/A   Clear
8:51 AM 52.0 °F - 36.0 °F 54% 29.78 in 10.0 mi NNW 11.5 mph - N/A   Clear
9:51 AM 55.9 °F - 34.0 °F 44% 29.80 in 10.0 mi North 10.4 mph - N/A   Clear
10:51 AM 57.9 °F - 33.1 °F 39% 29.81 in 10.0 mi NNW 12.7 mph - N/A   Clear
11:51 AM 61.0 °F - 33.1 °F 35% 29.81 in 10.0 mi NW 12.7 mph 20.7 mph N/A   Clear
12:51 PM 63.0 °F - 33.1 °F 33% 29.80 in 10.0 mi NW 17.3 mph 24.2 mph N/A   Clear
1:51 PM 64.9 °F - 33.1 °F 31% 29.80 in 10.0 mi NW 12.7 mph 25.3 mph N/A   Scattered Clouds
2:51 PM 64.0 °F - 28.9 °F 27% 29.79 in 10.0 mi WNW 19.6 mph 26.5 mph N/A   Mostly Cloudy
3:51 PM 63.0 °F - 27.0 °F 26% 29.79 in 10.0 mi NW 19.6 mph 26.5 mph N/A   Partly Cloudy
4:51 PM 64.0 °F - 26.1 °F 24% 29.80 in 10.0 mi WNW 18.4 mph 25.3 mph N/A   Mostly Cloudy
5:51 PM 64.4 °F - 24.8 °F 22% 29.81 in 10.0 mi NW 17.3 mph 21.9 mph N/A   Scattered Clouds
6:51 PM 62.1 °F - 24.1 °F 23% 29.84 in 10.0 mi NNW 16.1 mph - N/A   Clear
7:51 PM 55.0 °F - 25.0 °F 31% 29.87 in 10.0 mi NW 6.9 mph - N/A   Clear
8:51 PM 52.0 °F - 26.1 °F 37% 29.93 in 10.0 mi WNW 8.1 mph - N/A   Clear
9:51 PM 53.1 °F - 25.0 °F 34% 29.97 in 10.0 mi WNW 6.9 mph - N/A   Clear
10:51 PM 52.0 °F - 26.1 °F 37% 30.01 in 10.0 mi North 6.9 mph - N/A   Clear
11:51 PM 48.0 °F - 28.0 °F 46% 30.04 in 10.0 mi NNE 8.1 mph - N/A   Clear